Pagina principale
METAR-TAF:

METAR-TAF

Aeroporti :

Windham Airport

Willimantic, Connecticut, Stati Uniti

latitudine: 41-44-31N, longitudine: 072-11-01W, altezza: 75 m

Osservazione

Il bollettino è stato emesso 27 minuti fa, alle 07:52 UTC
Vento 3 kt da nord-est
Temperature 20°C
Umidità 94%
Pressione 1015 hPa
Visibilità: 12.9 km
Cielo sereno

METAR: KIJD 160752Z AUTO 05003KT 8SM CLR 20/19 A2997 RMK AO2 SLP146 T02000194 $

Ora: 04:19 (08:19 UTC)


TAF: mancante

Osservazioni e previsioni meteorologiche di più di 4000 aeroporti (messaggi METAR e TAF).

Le stazioni disponibili sono rappresentate dai dischi gialli e rossi sulla carta.

Puntare il mouse per vedere il nome della stazione.

Clicca sopra per visualizzare le osservazioni e previsioni meteorologiche.

Per cambiare la mappa : fare clic sui pulsanti verdi con una croce nera per ingrandire, il pulsante verde con un trattino per diminuire, o sulla freccia verde per le mappe adiacenti.


METAR-TAF: